FW6114 Weather Reports


Display with metric or nautical units.
time (UTC)temp
F
wind
direction
speed
MPH
gust
MPH
rain 1hr
in
rain 24hr
in
rain mn
in
humidity
%
barometer
mb
20260503230048 44 284 0.0 0.0 0.01 0.46 0.01 91 1012.5
20260503224519 44 284 0.0 0.0 0.01 0.46 0.01 90 1012.7
20260503223058 45 284 0.0 0.0 0.06 0.46 0.01 90 1012.8
20260503221541 46 284 0.0 0.0 0.06 0.46 0.01 89 1012.8
20260503220029 47 284 0.0 0.0 0.06 0.46 0.46 86 1012.9
20260503214525 49 248 3.0 13.0 0.05 0.46 0.45 85 1013.1
20260503213022 48 286 0.0 0.0 0.00 0.41 0.40 90 1012.6
20260503211523 48 271 0.0 0.0 0.00 0.41 0.40 90 1012.4
20260503210056 48 271 0.0 0.0 0.02 0.61 0.40 90 1012.1
20260503204533 49 271 0.0 0.0 0.02 0.61 0.40 89 1012.2
20260503203004 50 271 0.0 0.0 0.02 0.61 0.40 87 1012.2
20260503201544 51 271 0.0 0.0 0.02 0.61 0.40 85 1011.9
20260503200016 51 294 0.0 4.0 0.00 0.59 0.39 83 1011.8
20260503194554 52 313 0.0 0.0 0.00 0.59 0.39 82 1011.5
20260503193026 52 313 0.0 3.0 0.00 0.59 0.39 81 1011.2
20260503191503 52 315 0.0 0.0 0.00 0.59 0.39 84 1011.2
20260503190045 52 314 0.0 0.0 0.00 0.73 0.39 85 1010.8
20260503184524 53 282 0.0 0.0 0.00 0.73 0.39 84 1010.6
20260503183111 53 282 0.0 1.0 0.01 0.73 0.39 83 1010.5
20260503181539 53 280 0.0 5.0 0.01 0.73 0.39 82 1010.5
20260503180018 52 318 0.0 0.0 0.02 0.74 0.39 85 1010.4
20260503174548 53 318 0.0 0.0 0.02 0.74 0.39 84 1010.3
20260503173021 53 318 0.0 4.0 0.02 0.73 0.38 84 1010.4
20260503171531 53 273 0.0 0.0 0.05 0.73 0.38 84 1010.3
20260503160104 54 238 0.0 3.0 0.00 0.69 0.33 82 1010.3
20260503081545 52 288 0.0 5.0 0.00 0.36 0.01 83 1013.1
20260503071609 50 287 0.0 5.0 0.00 0.36 0.01 86 1013.0
20260503054503 48 305 0.0 2.0 0.00 0.36 0.01 88 1013.0
20260503053044 47 322 0.0 3.0 0.00 0.36 0.01 89 1013.2
20260503051530 47 319 0.0 0.0 0.00 0.36 0.01 89 1013.0
20260503050024 47 306 0.0 0.0 0.00 0.36 0.01 90 1012.8
20260503044502 47 324 0.0 0.0 0.00 0.36 0.01 89 1012.9
20260503043037 47 324 0.0 0.0 0.00 0.36 0.01 89 1012.8
20260503041514 47 329 0.0 4.0 0.00 0.36 0.01 90 1012.9
20260503040048 48 326 0.0 0.0 0.00 0.36 0.01 88 1013.1
20260503034520 48 326 0.0 1.0 0.00 0.36 0.01 88 1013.4
20260503033102 48 336 0.0 1.0 0.00 0.36 0.01 89 1013.6
20260503031537 48 325 0.0 4.0 0.00 0.36 0.01 88 1013.5
20260503030013 48 315 0.0 0.0 0.00 0.36 0.01 89 1013.4
20260503024558 48 302 0.0 6.0 0.00 0.36 0.01 89 1013.5
20260503023025 48 325 0.0 3.0 0.00 0.36 0.01 90 1013.5
20260503021502 48 323 0.0 0.0 0.00 0.36 0.01 89 1013.6
20260503020044 49 323 0.0 0.0 0.00 0.36 0.01 89 1013.6
20260503014549 49 331 0.0 0.0 0.01 0.36 0.01 90 1013.8
20260503013034 49 317 0.0 0.0 0.01 0.36 0.01 90 1013.9
20260503011506 48 315 0.0 0.0 0.01 0.36 0.01 91 1014.1
20260503010048 48 305 0.0 0.0 0.01 0.36 0.01 90 1014.3
20260503004529 48 305 0.0 0.0 0.00 0.35 0.00 91 1014.4
20260503003021 48 332 0.0 0.0 0.00 0.35 0.00 91 1014.7
20260503001512 48 331 0.0 0.0 0.00 0.35 0.00 91 1014.8
20260503000052 47 330 0.0 0.0 0.00 0.35 0.00 90 1015.0
20260502234545 47 333 0.0 0.0 0.00 0.35 0.00 91 1015.1
20260502233036 47 17 0.0 0.0 0.00 0.35 0.00 91 1015.2
20260502231530 47 17 0.0 0.0 0.00 0.35 0.00 91 1015.3